Find Starlink 32938

NORAD ID: 63201 Int'l Des: 2025-048 Owner: SPXS Country: US Constellation: starlink operational
LEOCIRCULAR

現在のビュー

3D地球を読み込み中...

About Starlink 32938

Starlink 32938 (NORAD 63201) is a starlink constellation satellite (v2 mini) launched Mar 13, 2025 by SPXS of US. It operates in LEO, CIRCULAR orbit with a mass of 730.00 kg.

次回通過

Passes for default location (London). Set your location on the main map for personalized predictions.

高度履歴

Loading altitude history...

軌道要素

1 63201U 25048U 26235.37158486 .00012959 00000-0 47938-3 0 9991
2 63201 43.0015 224.0203 0002005 287.4899 72.5733 15.27595071 82586
Epoch: Aug 23, 2026 • Age: 17 hours

現在のステータス

高度 482.4 km
遠地点 / 近地点 N/A
速度 7.63 km/s
衛星直下点 -2.11°S, 147.17°W
打ち上げ日 Mar 13, 2025
運用期間 1.4 years
タイプ internet

技術仕様

分類 Payload
質量 730.00 kg
乾燥質量 700.00 kg
総質量 730.00 kg
長さ 0.30 m
直径 4.10 m
スパン 29.00 m
形状 Box + pan
製造者 SPXS
バスタイプ Starlink V2M
フェーズステータス In Orbit
所有者/国 SPXS/US

Most Searched